Location: Newark
(39.9581°N, 97.2014°W)
Time: 06:19:10
(UTC+00:00)

Vanguard 2 - All Passes

Search period start: 24 February 2020 00:00
Search period end: 05 March 2020 00:00
Orbit: 552 x 2939 km, 32.9° (Epoch: 23 February)

Date Brightness Start Highest point End Pass type
(mag) Time Alt. Az. Time Alt. Az. Time Alt. Az.
24 Feb - 07:00:52 10° SSW 07:07:17 29° SE 07:16:48 10° E visible
24 Feb - 09:06:49 10° WSW 09:16:00 58° SSE 09:30:47 10° E visible
24 Feb - 11:14:57 10° W 11:26:52 63° S 11:43:59 10° ESE visible
24 Feb - 13:24:40 10° W 13:38:30 46° SSW 13:54:56 10° SE daylight
24 Feb - 15:37:49 10° W 15:49:18 22° SW 16:00:57 10° S daylight
25 Feb - 07:17:53 10° SSW 07:24:40 36° SSE 07:35:16 10° E visible
25 Feb - 09:24:29 10° WSW 09:33:51 61° S 09:48:56 10° E visible
25 Feb - 11:32:50 10° W 11:44:50 60° SSW 12:01:49 10° ESE visible
25 Feb - 13:42:54 10° W 13:56:17 39° SSW 14:11:55 10° SSE daylight
25 Feb - 15:58:06 10° WSW 16:06:47 16° SW 16:15:33 10° SSW daylight
26 Feb - 05:31:58 10° SSE 05:34:53 13° SE 05:38:22 10° ESE night (unlit)
26 Feb - 07:35:10 10° SW 07:42:12 43° SSE 07:53:33 10° E visible
26 Feb - 09:42:13 10° WSW 09:51:44 63° S 10:07:01 10° ESE visible
26 Feb - 11:50:46 10° W 12:02:46 54° SSW 12:19:29 10° SE visible
26 Feb - 14:01:22 10° W 14:14:00 32° SSW 14:28:31 10° SSE daylight
26 Feb - 16:23:52 10° SW 16:24:16 10° SW 16:24:38 10° SW daylight
27 Feb - 05:47:47 10° S 05:52:06 19° SE 05:57:52 10° E night (unlit)
27 Feb - 07:52:38 10° SW 07:59:50 50° SSE 08:11:46 10° E visible
27 Feb - 10:00:01 10° W 10:09:39 62° S 10:25:03 10° ESE visible
27 Feb - 12:08:46 10° W 12:20:40 48° SSW 12:36:55 10° SE visible
27 Feb - 14:20:13 10° W 14:31:40 25° SW 14:44:36 10° S daylight
28 Feb - 06:04:27 10° SSW 06:09:25 25° SE 06:16:35 10° E night (unlit)
28 Feb - 08:10:12 10° WSW 08:17:34 55° SSE 08:29:54 10° E visible
28 Feb - 10:17:50 10° W 10:27:35 59° S 10:42:58 10° ESE visible
28 Feb - 12:26:53 10° W 12:38:32 41° SSW 12:54:04 10° SE visible
28 Feb - 14:39:45 10° WSW 14:49:19 19° SW 14:59:51 10° S daylight
29 Feb - 06:21:31 10° SSW 06:26:51 32° SSE 06:35:00 10° E visible
29 Feb - 08:27:53 10° WSW 08:35:23 58° S 08:48:00 10° E visible
29 Feb - 10:35:42 10° W 10:45:30 54° SSW 11:00:44 10° ESE visible
29 Feb - 12:45:11 10° W 12:56:22 34° SSW 13:10:53 10° SSE daylight
29 Feb - 15:00:57 10° WSW 15:06:59 13° SW 15:13:21 10° SSW daylight
01 Mar - 04:36:35 10° SE 04:37:19 10° SE 04:38:06 10° SE night (unlit)
01 Mar - 06:38:50 10° SW 06:44:24 39° SSE 06:53:14 10° E visible
01 Mar - 08:45:36 10° WSW 08:53:15 58° S 09:06:03 10° ESE visible
01 Mar - 10:53:37 10° W 11:03:25 48° SSW 11:18:18 10° SE visible
01 Mar - 13:03:46 10° W 13:14:10 27° SSW 13:27:14 10° SSE daylight
02 Mar - 04:51:33 10° S 04:54:37 16° SE 04:58:26 10° ESE night (unlit)
02 Mar - 06:56:18 10° SW 07:02:03 45° SSE 07:11:23 10° E visible
02 Mar - 09:03:23 10° W 09:11:07 56° S 09:24:01 10° ESE visible
02 Mar - 11:11:39 10° W 11:21:20 41° SSW 11:35:37 10° SE visible
02 Mar - 13:22:53 10° WSW 13:31:59 21° SW 13:42:54 10° S daylight
03 Mar - 05:08:11 10° SSW 05:12:01 22° SSE 05:17:09 10° E night (unlit)
03 Mar - 07:13:54 10° WSW 07:19:46 50° S 07:29:28 10° E visible
03 Mar - 09:21:12 10° W 09:29:01 52° S 09:41:51 10° ESE visible
03 Mar - 11:29:49 10° W 11:39:14 34° SSW 11:52:37 10° SSE visible
03 Mar - 13:43:07 10° WSW 13:49:46 15° SW 13:57:18 10° S daylight
04 Mar - 05:25:16 10° SSW 05:29:30 28° SSE 05:35:30 10° E night (unlit)
04 Mar - 07:31:34 10° WSW 07:37:34 52° S 07:47:30 10° ESE visible
04 Mar - 09:39:04 10° W 09:46:54 46° SSW 09:59:32 10° SE visible
04 Mar - 11:48:15 10° W 11:57:06 27° SSW 12:09:10 10° SSE visible
